Tracking 30970 objects as of 3-Jul-2025
HD Live streaming from Space Station
objects crossing your sky now

PEGASUS DEB

Track PEGASUS DEB now!
10-day predictions


NORAD ID: 24126
Int'l Code: 1994-029FZ
Perigee: 568.9 km
Apogee: 977.6 km
Inclination: 81.8 °
Period: 100.2 minutes
Semi major axis: 7144 km
RCS: 0.0531 m2 (small)
Launch date: May 19, 1994
Source: United States (US)
Launch site: AIR FORCE WESTERN TEST RANGE (AFWTR)

Note: This is SATELLITE DEBRIS
Your satellite tracking list
Your tracking list is empty




NASA's NSSDC Master Catalog

Two Line Element Set (TLE):
1 24126U 94029FZ  25183.83727600  .00008655  00000-0  17831-2 0  9997
2 24126  81.8026 318.0781 0286066 147.5124   4.9225 14.37707131503680
Source of the keplerian elements: AFSPC